Grand Forks, ND

1:35 AM CDT on May 23, 2017 (GMT -0500)
Grand Forks International

Weather History for KGFK - November, 2013

Change the Weather History Date:

Tuesday, November 12, 2013

  Actual Average Record
Temperature  
Mean Temperature 22 °F 28 °F  
Max Temperature 40 °F 37 °F 61 °F (1981)
Min Temperature 4 °F 19 °F -5 °F (1986)
Degree Days  
Heating Degree Days 43 37  
Month to date heating degree days 420 402  
Since 1 July heating degree days 1323 1433  
Cooling Degree Days 0 0  
Month to date cooling degree days 0 0  
Year to date cooling degree days 487 379  
Moisture  
Dew Point 12 °F    
Average Humidity 64    
Maximum Humidity 83    
Minimum Humidity 44    
Precipitation  
Precipitation 0.00 in 0.03 in 0.44 in (1994)
Month to date precipitation 0.02 0.47  
Year to date precipitation 18.70 19.72  
Snow  
Snow 0.00 in 0.20 in 3.20 in (1980)
Month to date snowfall 0.3 2.2  
Since 1 July snowfall 0.3 3.7  
Since 1 September snowfall 0.3 3.7  
Snow Depth 0.00 in    
Sea Level Pressure  
Sea Level Pressure 30.49 in    
Wind  
Wind Speed 12 mph (SSW)    
Max Wind Speed 20 mph    
Max Gust Speed 24 mph    
Visibility 10 miles    
Events      
T = Trace of Precipitation, MM = Missing Value Source: NWS Daily Summary

Daily Weather History Graph

Daily Weather History Graph

Search for Another Location

Airport or City:

Trip Planner

Search our weather history database for the weather conditions in past years. The results will help you decide how hot, cold, wet, or windy it might be!

Date:

Astronomy

Nov. 12, 2013 Rise Set
Actual Time 7:30 AM CST 4:54 PM CST
Civil Twilight 6:57 AM CST 5:27 PM CST
Nautical Twilight 6:19 AM CST 6:05 PM CST
Astronomical Twilight 5:43 AM CST 6:41 PM CST
Moon 2:28 PM CST (11/12) 2:00 AM CST (11/12)
Length of Visible Light 10h 30m
Length of Day
9h 23m
Waxing Gibbous, 76% of the Moon is Illuminated
Nov 12
Waxing Gibbous
Nov 17
Full
Nov 25
Last Quarter
Dec 2
New
Dec 9
First Quarter

Hourly Weather History & Observations

Time (CST) Temp. Windchill Dew Point Humidity Pressure Visibility Wind Dir Wind Speed Gust Speed Precip Events Conditions
12:53 AM 7.0 °F -4.5 °F 1.0 °F 77% 30.75 in 10.0 mi SW 6.9 mph - N/A   Clear
1:53 AM 5.0 °F -6.9 °F -0.0 °F 80% 30.73 in 10.0 mi South 6.9 mph - N/A   Clear
2:53 AM 6.1 °F -6.8 °F -0.0 °F 76% 30.72 in 10.0 mi SSW 8.1 mph - N/A   Clear
3:53 AM 7.0 °F -6.6 °F 1.0 °F 77% 30.71 in 10.0 mi SSW 9.2 mph - N/A   Clear
4:53 AM 8.1 °F -5.3 °F 1.0 °F 73% 30.70 in 10.0 mi SSW 9.2 mph - N/A   Clear
5:53 AM 9.0 °F -5.1 °F 1.9 °F 73% 30.67 in 10.0 mi SSW 10.4 mph - N/A   Clear
6:53 AM 10.0 °F -2.9 °F 3.0 °F 73% 30.66 in 10.0 mi SSW 9.2 mph - N/A   Clear
7:53 AM 10.9 °F -0.8 °F 3.9 °F 73% 30.65 in 10.0 mi South 8.1 mph - N/A   Clear
8:53 AM 16.0 °F 6.3 °F 9.0 °F 74% 30.63 in 10.0 mi South 6.9 mph - N/A   Clear
9:53 AM 24.1 °F 13.7 °F 14.0 °F 65% 30.59 in 10.0 mi SSW 10.4 mph - N/A   Clear
10:53 AM 30.0 °F 19.1 °F 16.0 °F 56% 30.55 in 10.0 mi SSW 15.0 mph - N/A   Partly Cloudy
11:53 AM 33.1 °F 22.2 °F 17.1 °F 52% 30.51 in 10.0 mi SSW 17.3 mph - N/A   Mostly Cloudy
12:53 PM 36.0 °F 26.0 °F 19.0 °F 50% 30.48 in 10.0 mi SSW 17.3 mph 21.9 mph N/A   Mostly Cloudy
1:53 PM 37.9 °F 29.2 °F 19.0 °F 47% 30.46 in 10.0 mi SSW 15.0 mph 24.2 mph N/A   Scattered Clouds
2:53 PM 39.9 °F 31.8 °F 19.9 °F 45% 30.42 in 10.0 mi SSW 15.0 mph - N/A   Partly Cloudy
3:53 PM 39.0 °F 30.3 °F 19.9 °F 46% 30.39 in 10.0 mi South 16.1 mph - N/A   Clear
4:53 PM 35.1 °F 26.9 °F 21.0 °F 57% 30.37 in 10.0 mi South 11.5 mph - N/A   Partly Cloudy
5:53 PM 32.0 °F 22.1 °F 19.9 °F 61% 30.35 in 10.0 mi South 13.8 mph - N/A   Partly Cloudy
6:53 PM 30.9 °F 20.2 °F 18.0 °F 59% 30.31 in 10.0 mi South 15.0 mph - N/A   Clear
7:53 PM 28.9 °F 17.7 °F 17.1 °F 61% 30.27 in 10.0 mi South 15.0 mph - N/A   Clear
8:53 PM 27.0 °F 15.2 °F 17.1 °F 66% 30.24 in 10.0 mi South 15.0 mph - N/A   Clear
9:53 PM 26.1 °F 14.5 °F 18.0 °F 71% 30.21 in 10.0 mi South 13.8 mph - N/A   Clear
10:53 PM 27.0 °F 15.2 °F 19.9 °F 75% 30.17 in 10.0 mi South 15.0 mph - N/A   Clear
11:53 PM 26.1 °F 15.0 °F 19.9 °F 78% 30.14 in 10.0 mi South 12.7 mph - N/A   Clear